SCP
0 0 0 0 0 0 1 0 0 0 1 1 1 2 2 2 2 2 2 2 2 2 2 2 3 4 4 4 4 4 5 5 5 5 5 4 3 2 2 2 2 2 2 2
0 1 1 1 1 1 1 1 1 1 1 1 1 2 2 2 3 3 2 2 2 2 2 2 3 3 4 4 4 4 4 5 5 5 4 4 3 2 2 1 1 1 1 1
1 1 1 1 1 1 2 2 1 1 1 2 2 2 2 3 3 3 2 2 2 2 2 2 2 3 3 4 5 5 4 3 3 3 3 3 3 3 2 2 1 1 1 1
0 1 1 1 1 1 2 2 2 2 2 2 3 3 3 3 3 3 2 2 2 2 2 2 2 3 3 5 6 6 5 3 3 3 3 3 3 3 3 3 2 2 1 1
0 0 1 1 1 1 2 2 2 2 2 3 3 4 4 4 3 2 2 2 2 2 2 2 2 3 4 6 8 7 6 4 4 4 3 3 4 4 4 4 3 2 2 1
0 0 0 1 1 1 2 2 2 2 2 3 3 4 4 3 2 2 2 2 2 2 2 2 2 3 4 7 9 9 7 5 4 4 4 4 4 3 3 3 3 2 2 1
0 0 0 1 1 1 1 1 2 2 2 2 3 3 2 2 2 2 2 2 2 1 2 2 2 3 4 6 8 8 7 5 4 4 4 4 3 2 2 2 2 2 1 1
0 0 1 1 1 1 1 1 2 2 2 2 2 2 1 1 1 1 1 1 1 1 1 1 2 3 3 3 4 5 5 4 4 4 4 3 3 2 2 1 1 1 1 1
0 0 0 0 0 1 1 1 2 2 1 1 2 2 1 1 1 1 1 1 1 1 1 1 1 2 1 1 2 3 4 3 3 3 3 3 3 2 2 2 2 2 2 2
0 0 0 0 1 0 1 1 1 1 1 1 2 2 1 1 1 1 1 1 1 0 0 0 0 1 1 2 3 3 3 2 2 2 2 2 2 2 2 2 2 2 2 2
0 0 0 0 0 0 1 1 1 1 1 2 2 2 2 1 1 1 1 2 2 2 2 2 1 1 1 2 3 3 2 1 1 1 1 1 1 1 1 1 1 1 1 1
0 0 0 0 0 0 1 1 1 1 2 2 3 2 2 1 1 2 3 4 4 5 5 4 3 2 2 2 2 1 1 0 0 0 0 0 0 0 0 0 0 0 0 0
0 0 0 0 0 0 1 1 1 1 2 2 2 2 1 1 2 3 3 4 4 4 4 3 3 2 1 1 0 0 0 0 0 0 0 0 0 0 0 0 0 0 0 0
0 0 0 0 0 0 0 1 1 1 1 1 1 1 0 1 1 2 2 2 2 1 1 1 1 1 0 0 0 0 0 0 0 0 0 0 0 0 0 0 0 0 0 0
0 0 0 0 0 0 0 1 1 1 1 1 0 0 0 0 0 0 0 0 0 0 0 0 0 0 0 0 0 0 0 0 0 0 0 0 0 0 0 0 0 0 0 0
0 0 0 0 0 0 0 0 1 1 1 0 0 0 0 0 0 0 0 0 0 0 0 0 0 0 0 0 0 0 0 0 0 0 0 0 0 0 0 0 0 0 0 0
0 0 0 0 0 0 0 0 0 0 0 0 0 0 0 0 0 0 0 0 0 0 0 0 0 0 0 0 0 0 0 0 0 0 0 0 0 0 0 0 0 0 0 0
0 0 0 0 0 0 0 0 0 0 0 0 0 0 0 0 0 0 0 0 0 0 0 0 0 0 0 0 0 0 0 0 0 0 0 0 0 0 0 0 0 0 0 0
0 0 0 0 0 0 0 0 0 0 0 0 0 0 0 0 0 0 0 0 0 0 0 0 0 0 0 0 0 0 0 0 0 0 0 0 0 0 0 0 0 0 0 0
0 0 0 0 0 0 0 0 0 0 0 0 0 0 0 0 0 0 0 0 0 0 0 0 0 0 0 0 0 0 0 0 0 0 0 0 0 0 0 0 0 0 0 0
0 0 0 0 0 0 0 0 0 0 0 0 0 0 0 0 0 0 0 0 0 0 0 0 0 0 0 0 0 0 0 0 0 0 0 0 0 0 0 0 0 0 0 0
0 0 0 0 0 0 0 0 0 0 0 0 0 0 0 0 0 0 0 0 0 0 0 0 0 0 0 0 0 0 0 0 0 0 0 0 0 0 0 0 0 0 0 0
0 0 0 0 0 0 0 0 0 0 0 0 0 0 0 0 0 0 0 0 0 0 0 0 0 0 0 0 0 0 0 0 0 0 0 0 0 0 0 0 0 0 0 0
0 0 0 0 0 0 0 0 0 0 0 0 0 0 0 0 0 0 0 0 0 0 0 0 0 0 0 0 0 0 0 0 0 0 0 0 0 0 0 0 0 0 0 0
0 0 0 0 0 0 0 0 0 0 0 0 0 0 0 0 0 0 0 0 0 0 0 0 0 0 0 0 0 0 0 0 0 0 0 0 0 0 0 0 0 0 0 0
0 0 0 0 0 0 0 0 0 0 0 0 0 0 0 0 0 0 0 0 0 0 0 0 0 0 0 0 0 0 0 0 0 0 0 0 0 0 0 0 0 0 0 0
0 0 0 0 0 0 0 0 0 0 0 0 0 0 0 0 0 0 0 0 0 0 0 0 0 0 0 0 0 0 0 0 0 0 0 0 0 0 0 0 0 0 0 0
Wind_Speed
4 5 3 3 4 3 3 6 6 6 6 7 7 6 5 4 4 6 6 9 11 11 10 9 9 9 10 10 10 10 10 9 9 8 7 7 6 6 7 8 9 8 7 7
2 2 2 2 3 2 2 2 4 4 4 4 3 2 1 2 4 5 5 6 8 9 9 9 10 10 10 10 10 10 10 10 9 8 8 8 8 7 7 6 6 7 7 8
2 3 3 2 2 2 1 1 4 5 5 3 3 3 2 3 4 4 5 5 6 7 8 8 9 9 10 10 9 9 9 8 8 9 9 9 9 8 8 7 6 6 7 7
1 2 2 4 1 2 2 2 2 2 3 6 7 5 4 4 5 5 5 5 4 4 4 4 5 6 7 7 8 8 8 7 6 7 7 7 6 7 7 5 6 6 6 6
3 2 3 2 3 3 1 2 3 3 4 7 8 9 8 6 6 7 6 5 4 3 4 4 4 5 6 6 6 6 6 6 6 6 6 6 6 6 5 5 5 5 4 5
3 2 3 2 4 5 2 1 3 3 4 6 5 6 3 3 7 8 8 7 6 6 5 4 2 5 7 6 6 5 5 5 4 5 5 5 5 4 4 4 5 5 4 4
2 2 3 3 6 3 3 3 0 3 4 5 4 5 5 5 8 9 9 8 8 8 7 5 3 5 6 5 4 4 4 4 3 4 4 4 3 3 2 2 3 4 4 4
1 1 4 5 3 1 3 2 3 5 6 8 9 10 8 8 9 10 9 9 9 9 8 6 6 7 6 4 2 3 3 3 2 2 3 4 4 3 3 3 3 3 2 2
2 2 3 2 1 1 3 4 5 7 8 9 10 9 9 8 8 9 9 8 7 8 8 8 7 7 7 3 3 5 5 4 2 2 1 2 3 3 2 2 3 3 2 3
1 2 2 2 1 2 4 5 6 8 8 9 10 10 9 8 7 8 8 7 7 8 9 8 7 7 6 5 5 7 6 4 4 3 3 2 1 1 2 2 2 2 3 3
1 1 2 4 1 3 6 7 8 9 9 9 11 11 9 8 7 7 7 6 7 7 7 6 6 7 6 6 6 7 5 4 4 3 2 2 2 1 1 2 3 4 3 3
3 3 3 1 3 7 9 9 9 10 10 9 10 11 9 7 6 7 7 6 7 7 6 6 6 6 5 5 6 6 5 4 3 2 2 2 2 3 3 2 2 3 4 3
3 4 5 4 6 8 10 10 11 12 12 11 10 9 9 7 6 7 7 7 6 6 5 5 5 5 4 4 5 5 4 3 2 2 2 2 1 1 2 4 4 2 3 5
6 8 8 6 7 9 11 12 13 12 11 10 9 9 8 8 7 7 6 5 5 6 5 5 5 4 3 4 5 5 4 3 3 2 2 1 1 1 0 1 2 3 3 2
6 7 8 8 9 10 10 11 12 11 9 9 8 8 8 8 7 6 4 5 6 6 5 4 4 3 3 3 4 3 3 2 2 2 2 1 1 1 1 1 1 2 2 3
8 9 10 11 11 9 9 10 10 8 8 8 7 7 7 7 6 5 5 5 6 4 3 3 2 2 3 3 3 3 3 4 3 2 2 2 2 2 1 1 1 1 1 2
9 7 9 10 9 8 8 7 7 6 6 7 6 5 6 6 6 5 4 4 4 3 2 2 2 3 3 3 3 3 3 3 5 3 2 2 2 2 1 1 1 1 1 2
7 7 7 8 8 8 7 6 6 6 5 5 5 5 6 5 4 3 3 4 5 5 4 3 2 3 4 4 3 3 3 3 2 2 2 2 2 2 1 1 1 2 2 2
9 8 8 8 7 6 6 6 5 5 5 5 6 6 4 4 3 3 3 5 4 3 3 3 5 5 4 5 5 3 3 3 3 3 2 3 3 2 2 2 2 1 2 2
9 8 9 9 8 7 6 6 6 5 5 5 6 6 5 3 3 3 4 3 1 0 1 2 3 4 4 5 6 3 3 3 3 3 3 3 2 2 2 2 2 2 2 2
8 8 9 8 8 7 6 5 6 5 5 5 5 4 3 3 3 4 4 2 2 2 2 4 3 2 3 4 5 3 3 3 3 3 3 3 3 3 3 3 3 2 2 2
7 7 7 7 7 5 4 4 5 5 5 5 4 4 4 3 3 3 2 1 1 2 2 2 2 3 4 4 3 3 3 3 3 3 3 3 3 3 3 3 3 3 3 3
5 5 5 5 4 4 5 5 5 5 5 4 4 4 3 2 2 2 1 1 1 2 2 2 3 5 6 4 3 3 3 3 3 3 3 3 3 3 3 3 3 3 4 4
4 4 4 4 5 7 6 5 5 5 5 5 4 3 3 3 2 1 0 1 3 3 2 3 4 5 5 3 2 3 3 3 3 3 3 3 3 3 3 3 3 4 4 5
3 4 5 6 6 4 4 4 5 5 5 4 5 4 3 2 2 1 2 3 4 4 2 4 6 6 4 2 2 2 2 3 3 3 3 3 3 4 4 4 4 4 4 4
3 4 3 3 3 2 3 3 3 3 3 3 3 3 3 3 3 2 2 3 4 4 4 3 3 4 3 3 3 3 3 4 4 3 4 3 4 4 4 4 6 4 4 5
5 4 4 4 4 3 3 3 3 3 2 2 2 2 3 2 3 3 3 3 3 3 3 3 3 3 3 3 3 3 3 3 4 4 3 4 4 4 4 5 4 4 4 5
Wind_Direction
241 243 224 239 260 223 191 187 189 215 198 220 219 209 200 185 167 167 174 179 180 181 181 182 181 181 182 184 182 180 178 184 191 189 185 184 185 190 190 186 188 186 187 192
301 290 292 293 309 297 251 204 190 167 226 236 216 194 202 151 134 142 164 173 177 178 177 181 183 182 179 180 181 175 179 188 188 186 185 191 191 191 187 188 192 186 193 196
269 304 3 301 293 307 241 254 172 181 211 183 123 124 144 128 118 132 152 161 174 177 176 183 187 182 180 180 174 173 181 189 189 189 191 196 195 188 191 193 191 192 198 197
153 54 216 241 334 8 124 52 41 131 153 152 135 112 73 86 106 108 111 112 124 140 156 168 172 175 171 165 166 170 174 182 183 183 190 192 189 192 197 193 195 199 204 206
138 170 255 310 16 12 33 20 6 87 128 134 119 88 55 47 74 87 95 99 100 107 124 124 127 146 141 144 147 154 171 182 184 184 185 181 189 196 192 188 194 199 199 203
130 155 210 247 302 299 181 68 4 70 127 137 112 99 92 64 77 76 76 72 69 65 71 92 125 138 133 140 143 160 177 179 177 172 170 178 190 197 188 189 194 190 198 205
146 185 253 275 299 321 143 192 89 92 105 102 88 112 119 93 81 77 77 72 68 66 61 56 75 108 118 120 136 157 150 143 145 158 162 168 171 175 167 173 183 190 198 212
107 145 270 318 345 111 186 170 133 99 97 96 96 93 90 84 82 79 74 69 69 70 60 49 65 88 97 99 101 94 97 101 116 142 161 154 153 164 163 161 172 198 210 230
169 206 263 298 245 236 144 126 115 103 102 104 104 99 92 86 83 84 83 78 73 77 70 54 53 70 82 74 76 87 87 84 81 80 109 127 146 155 152 162 179 191 194 213
86 337 332 351 57 70 110 116 110 111 116 116 112 108 101 95 89 84 80 80 78 77 73 61 51 58 63 61 72 78 75 68 65 66 55 47 67 124 156 172 184 196 204 213
128 242 12 5 33 100 96 98 101 105 108 108 107 100 96 93 88 87 85 77 76 79 78 69 58 54 48 53 69 75 70 62 59 65 69 56 43 40 176 208 200 197 207 200
192 206 140 61 51 98 100 94 99 100 92 92 103 107 103 96 91 89 84 80 79 77 75 67 61 54 41 45 64 73 66 53 48 46 47 43 44 11 3 323 285 235 220 209
142 116 103 92 75 89 100 100 94 94 98 98 94 99 99 95 88 87 86 84 85 83 81 75 67 54 36 40 55 60 57 43 38 35 37 32 40 39 353 342 342 295 250 237
104 100 88 81 86 87 94 97 94 90 90 95 98 96 94 89 83 82 82 85 85 81 74 68 62 44 27 45 50 46 39 32 32 17 8 5 357 344 339 323 335 329 319 274
63 89 106 99 86 81 87 93 90 88 89 87 90 93 93 91 88 85 82 81 77 71 63 60 55 21 8 43 46 34 26 13 13 6 3 6 1 2 350 340 303 292 316 332
85 85 90 91 90 88 87 91 94 94 96 92 89 93 97 97 92 83 75 75 76 67 51 55 38 349 10 36 32 19 8 6 10 8 359 0 358 353 334 324 314 317 320 310
100 95 96 97 94 92 90 94 98 99 97 97 100 98 93 88 83 75 65 67 80 74 61 60 32 21 31 34 35 19 8 1 4 7 0 349 343 334 324 330 330 322 307 326
99 105 109 110 108 101 94 90 93 93 98 106 99 91 87 89 92 86 74 71 65 46 25 20 34 36 29 23 21 11 6 1 0 351 344 353 351 350 357 357 351 342 326 340
94 99 97 95 97 97 93 89 88 87 87 91 95 96 96 98 103 95 80 74 69 47 351 2 33 37 23 10 16 12 10 8 6 358 356 2 4 0 356 348 342 336 336 341
82 86 85 81 79 83 85 83 80 71 69 83 88 83 74 63 74 82 79 67 36 262 311 23 36 29 8 0 14 18 20 17 11 2 0 357 349 342 340 336 328 326 327 322
71 74 76 76 73 73 75 80 82 77 72 80 87 87 78 59 65 80 83 58 341 2 43 38 37 14 4 9 18 21 19 16 11 2 351 344 346 346 342 340 338 334 330 324
65 66 68 68 65 58 54 67 79 81 77 71 68 72 72 63 57 60 66 112 303 38 43 25 19 26 25 25 23 20 15 10 1 354 352 355 357 352 345 343 337 332 327 318
68 66 62 61 68 64 50 55 63 73 74 72 68 74 82 76 78 89 28 317 18 47 48 26 21 28 27 27 20 17 10 3 356 356 357 352 346 341 334 333 332 332 325 320
61 58 54 60 68 67 55 41 50 57 61 61 57 63 76 67 35 26 72 35 48 52 42 24 25 25 25 23 13 10 7 2 356 356 357 352 349 346 341 336 335 333 331 332
62 57 62 66 65 62 55 52 54 50 52 49 41 40 46 65 69 26 35 43 47 49 30 20 25 22 20 14 15 9 2 4 3 357 354 351 346 344 342 338 334 335 339 338
71 70 72 74 80 76 68 64 57 46 52 49 32 25 25 27 38 46 49 46 42 40 36 27 24 24 17 14 10 4 0 359 7 10 1 357 354 349 345 346 345 344 341 337
62 59 55 49 44 50 59 62 61 50 50 62 39 12 17 22 34 42 46 44 41 40 37 32 24 17 12 16 15 11 8 9 8 5 2 2 358 353 350 351 347 344 344 344